Location: Columbia
(38.9520°N, 92.3340°W)
Time: 03:17:18
(UTC-05:00)

FENGYUN 3A - Visible Passes

Search period start: 02 May 2016 00:00
Search period end: 12 May 2016 00:00
Orbit: 819 x 834 km, 98.5° (Epoch: 01 May)

Date Brightness Start Highest point End Pass type
(mag) Time Alt. Az. Time Alt. Az. Time Alt. Az.
02 May 4.1 21:13:33 10° S 21:18:50 62° W 21:24:09 10° NNW visible
03 May 3.7 20:54:37 10° SSE 20:59:58 89° ENE 21:05:21 10° NNW visible
04 May 3.8 20:35:54 10° SSE 20:41:09 60° ENE 20:46:25 10° N visible
04 May 6.1 22:18:36 10° SW 22:21:46 16° W 22:24:57 10° NW visible
05 May 5.7 21:58:28 10° SSW 22:02:44 24° W 22:07:00 10° NW visible
06 May 5.0 21:38:52 10° SSW 21:43:44 35° W 21:48:38 10° NNW visible
07 May 4.3 21:19:35 10° S 21:24:48 53° W 21:30:03 10° NNW visible
08 May 3.8 21:00:34 10° S 21:05:54 80° WSW 21:11:18 10° NNW visible
09 May 3.7 20:41:46 10° SSE 20:47:04 69° ENE 20:52:24 10° N visible
09 May 6.2 22:25:12 10° WSW 22:27:47 14° W 22:30:23 10° WNW visible
10 May 5.8 22:04:47 10° SW 22:08:44 21° W 22:12:42 10° NW visible
11 May 5.3 21:45:02 10° SSW 21:49:43 31° W 21:54:27 10° NW visible
